Location: Jangalapalle
(16.8036°N, 80.6370°E)
Time: 12:01:33
(UTC+00:00)

Mugunghwa Rocket - Pass Details

Date: 05 August 2024
Orbit: 936 x 1372 km, 26.7° (Epoch: 08 September)

Event Time Altitude Azimuth Distance (km) Brightness Sun altitude
Exits shadow 21:59:33 73° 248° (WSW) 1,399 4.5 -31.2°
Maximum altitude 22:00:36 90° 325° (NW) 1,340 4.5 -31.0°
Drops below altitude 10° 22:08:57 10° 68° (ENE) 3,252 7.6 -29.3°
Sets 22:11:44 0° 68° (ENE) 4,165 8.5 -28.7°
